GFSSW_850_thetae_000.txt.gz
Theta_e
308 308 308 308 308 308 308 308 308 309 309 309 309 310 310 311 311 312 315 317 317 321 324 328 329 331 332 331 331 331 332 333 333 332 331 331 331 331 330 328 328 327 325 325 327
307 307 308 308 308 308 308 308 308 308 309 309 309 309 310 310 311 313 318 319 319 319 319 329 331 332 331 330 330 330 332 332 332 331 329 329 329 329 329 329 329 327 325 324 325
303 303 305 306 307 308 308 308 308 308 308 308 309 309 310 310 313 316 319 320 319 318 318 326 330 331 331 330 330 330 331 331 331 331 328 327 328 328 329 329 328 326 326 325 324
309 308 305 303 303 304 307 307 308 308 308 308 309 309 309 310 316 324 318 318 317 317 319 321 326 330 331 331 330 331 331 331 330 330 327 326 326 329 328 328 327 326 325 325 325
309 308 309 308 308 304 304 304 306 307 308 308 308 309 309 313 314 316 316 316 318 316 318 320 324 329 330 330 330 332 331 330 330 328 327 326 327 329 328 327 327 325 324 324 324
309 308 309 308 306 308 309 305 303 304 306 307 308 308 309 314 312 314 316 319 318 317 318 320 322 325 327 328 329 330 331 329 329 328 327 327 328 328 327 327 326 325 324 324 324
306 307 308 309 308 307 306 309 308 304 304 305 306 307 312 312 313 316 316 318 322 322 319 319 321 324 325 328 329 329 330 328 329 328 328 328 329 328 327 327 327 326 325 325 325
303 305 307 309 309 309 307 306 308 309 307 303 302 303 312 313 312 313 315 316 316 318 322 323 322 322 324 326 328 328 329 329 328 329 328 328 329 329 327 328 328 327 326 326 325
302 303 306 306 308 308 308 308 306 308 309 307 301 301 311 313 313 313 315 316 321 320 321 321 321 324 322 325 327 328 329 328 329 329 329 329 329 328 328 328 329 327 327 326 326
296 302 304 304 305 306 307 307 306 307 308 307 307 314 317 317 314 317 315 316 316 318 317 320 321 324 325 325 328 329 328 328 329 330 329 330 330 329 328 328 329 329 328 327 326
302 297 302 303 304 305 306 310 314 317 310 315 315 313 317 318 317 316 317 315 316 316 319 320 323 325 326 326 325 327 328 329 331 330 330 331 333 331 329 328 329 329 328 326 326
304 303 296 303 303 304 306 309 314 313 314 315 316 315 315 316 317 316 317 317 317 317 318 321 325 323 325 326 325 326 328 329 329 329 328 329 330 330 330 330 329 327 327 327 327
305 304 299 302 302 302 306 308 310 313 313 313 316 319 317 317 317 317 316 317 319 317 318 320 322 323 325 325 325 328 328 329 329 328 329 329 331 331 330 329 328 327 326 325 328
305 305 304 299 305 310 312 311 312 310 313 313 315 315 318 319 319 317 318 318 319 318 318 320 321 324 325 325 327 329 328 328 328 328 329 329 333 332 329 330 329 326 326 326 328
305 304 305 297 304 309 311 310 309 310 318 319 317 317 317 320 319 318 317 318 320 319 319 319 322 323 327 326 327 328 328 328 328 329 328 328 330 328 330 330 328 326 325 327 328
304 304 304 301 303 306 308 311 309 313 315 319 322 319 319 319 320 320 318 318 318 320 320 319 321 324 326 327 327 327 328 328 327 328 332 329 329 329 329 327 326 326 326 328 329
304 304 304 304 305 308 309 310 312 314 315 319 322 320 320 320 320 320 320 320 321 322 323 321 320 323 326 326 327 327 329 330 332 330 332 328 329 331 330 327 326 325 327 329 329
303 305 304 305 304 306 307 311 313 311 313 321 322 321 321 321 320 321 320 320 322 321 322 323 322 322 325 327 327 328 330 328 334 331 330 331 332 328 327 326 325 325 327 330 329
304 304 304 306 304 304 307 311 311 311 314 314 317 319 323 322 322 321 322 322 322 323 324 324 323 324 324 326 328 328 328 327 328 328 329 329 330 330 329 326 326 326 331 331 329
303 305 305 306 304 305 308 309 310 310 311 312 315 318 321 323 323 323 324 323 322 323 325 326 327 326 324 327 328 329 327 327 327 331 335 329 330 329 328 327 329 332 332 332 329
303 304 304 306 305 305 309 307 309 309 309 311 313 315 317 319 322 323 323 323 322 323 324 327 331 328 327 329 328 328 328 327 329 328 331 332 330 330 331 332 335 333 333 332 329
303 306 307 305 306 305 308 309 307 308 308 310 311 312 315 318 320 322 324 325 324 324 325 327 329 331 329 328 328 328 328 329 330 333 329 329 331 332 332 330 332 333 333 330 328
304 306 306 305 307 306 308 307 307 308 308 309 310 311 314 316 318 323 325 325 324 325 327 327 329 334 332 330 329 329 329 329 332 334 334 329 330 331 330 330 330 333 331 329 328
304 307 307 307 307 308 307 307 308 308 309 307 310 311 313 315 316 320 324 326 324 326 325 329 330 331 334 332 331 331 329 327 329 333 329 330 329 331 330 329 330 333 331 329 328
304 305 305 307 306 306 305 307 306 306 309 308 310 311 312 315 316 320 320 320 323 326 329 331 329 332 329 329 328 328 327 327 328 330 330 330 329 329 331 331 330 332 331 329 328
303 305 305 304 304 305 305 307 305 306 307 309 310 310 312 313 314 317 316 319 322 322 328 333 330 331 328 328 329 328 328 327 327 327 328 329 330 331 330 329 329 332 332 330 329
303 304 304 304 305 306 307 306 307 307 307 308 309 310 310 311 312 313 313 315 318 321 326 334 331 331 333 328 328 330 329 328 328 328 329 329 330 330 329 329 329 333 332 332 330

GFSSW_850_thetae_003.txt.gz
Theta_e
306 307 307 308 308 308 308 308 308 308 309 309 309 309 309 309 310 310 313 318 317 316 325 327 327 328 330 331 330 332 328 329 329 328 329 329 326 328 328 328 328 327 326 326 327
305 304 305 306 307 308 308 308 308 308 308 308 308 309 309 309 309 310 315 316 318 318 317 325 327 327 329 331 331 330 329 329 329 329 328 328 326 326 327 328 327 328 325 325 326
310 309 307 305 304 305 306 307 308 308 308 308 308 308 308 308 308 312 315 318 318 318 317 319 326 329 330 331 331 330 329 328 328 329 329 329 325 326 325 326 328 326 325 325 324
308 308 308 309 309 307 304 304 305 306 307 307 308 308 308 308 312 319 318 317 319 318 317 319 323 329 330 330 331 329 328 329 328 329 329 326 327 325 325 326 328 327 325 325 324
306 307 308 308 307 307 309 309 305 304 304 305 307 307 308 310 309 315 318 315 316 318 317 317 320 322 325 330 330 329 329 329 329 329 329 328 326 325 324 327 327 326 325 324 325
303 304 306 306 306 307 306 306 309 309 304 303 304 305 305 311 311 311 312 315 316 317 317 317 319 321 323 327 328 329 328 329 330 330 328 327 326 326 326 328 327 325 324 324 324
297 299 302 303 305 307 308 306 306 307 310 306 302 302 302 308 311 313 314 314 316 317 318 317 319 320 322 322 325 326 325 326 328 328 325 327 326 326 327 328 327 326 325 325 324
299 296 302 303 304 306 305 304 306 306 307 309 306 302 306 307 309 310 315 316 317 321 322 323 318 319 320 323 323 323 325 327 326 326 327 326 326 326 327 327 327 327 327 326 325
304 302 299 300 302 303 304 304 301 306 306 308 308 303 308 307 310 311 312 313 316 319 320 323 322 319 320 320 321 323 324 325 327 327 327 326 327 326 327 327 327 328 328 327 326
305 304 304 300 299 302 303 302 301 307 306 308 308 309 310 313 312 312 312 312 314 317 318 317 319 319 318 322 323 323 324 326 327 327 326 326 327 326 328 327 327 327 328 327 326
305 305 303 304 300 302 303 303 312 315 311 313 311 310 315 316 316 316 315 313 316 316 320 320 315 319 320 321 323 323 325 327 327 327 327 329 328 327 327 327 326 327 328 327 327
302 303 303 304 302 300 303 303 311 310 312 313 313 312 313 314 314 318 315 317 315 316 315 316 316 318 321 322 324 324 324 324 325 327 327 328 328 327 327 327 327 327 327 327 326
302 302 304 303 303 308 309 309 310 308 312 313 313 314 315 314 314 315 316 317 316 315 315 315 318 319 322 322 323 325 325 324 325 327 327 327 326 328 328 327 327 327 327 327 326
303 303 305 304 303 310 311 311 311 311 310 309 312 313 316 317 318 315 317 316 317 316 315 315 317 320 322 322 323 324 325 325 326 327 327 327 325 327 327 325 325 326 326 326 325
303 303 304 304 304 302 311 310 310 311 312 311 312 314 314 319 319 318 316 317 317 317 316 316 316 318 320 323 323 324 325 325 327 327 326 325 324 325 326 326 325 322 327 326 326
303 303 304 304 304 306 308 309 310 310 310 312 316 316 316 319 320 320 317 317 316 317 317 317 318 317 318 320 324 325 325 326 326 324 325 326 325 325 326 326 325 323 326 327 327
303 303 304 305 305 304 306 309 312 312 310 313 317 316 317 318 320 321 317 317 317 317 318 318 317 318 319 320 321 325 323 325 325 322 324 326 327 326 325 326 323 325 328 328 328
303 303 304 304 304 304 305 309 311 309 309 310 312 314 317 318 319 320 320 317 316 317 318 319 318 318 318 319 321 323 323 325 327 327 325 326 326 326 326 324 325 328 328 329 328
303 303 304 304 305 305 305 309 308 309 309 311 310 312 315 319 320 320 320 317 317 317 317 318 319 319 319 319 321 322 324 323 324 325 325 326 328 327 324 323 323 329 329 329 328
303 303 304 306 305 305 306 308 307 308 309 309 310 310 311 313 315 319 319 320 318 318 318 319 319 320 320 320 320 322 325 325 321 324 325 327 328 329 324 323 324 330 328 329 328
303 305 304 306 306 304 306 306 307 307 307 308 309 310 311 312 314 317 321 321 320 319 318 319 322 323 320 320 320 322 325 322 320 320 323 325 327 325 324 326 329 330 329 328 328
303 305 306 306 306 303 307 305 307 307 308 308 308 309 310 313 315 316 319 321 321 320 319 319 321 322 325 322 322 324 325 322 323 325 324 326 326 327 328 328 328 331 330 328 327
304 304 305 306 306 305 305 306 307 307 307 308 309 308 309 311 315 316 319 320 320 320 320 320 320 327 323 323 323 326 325 324 322 324 326 328 327 326 327 331 332 331 331 329 327
302 304 305 305 305 306 306 306 305 305 306 307 308 309 309 312 313 315 317 318 316 321 325 322 320 321 328 325 325 327 326 324 324 326 327 328 327 328 327 328 330 330 330 328 327
302 304 305 306 305 305 305 305 305 305 305 306 308 310 310 311 313 315 314 314 315 320 316 322 321 325 323 325 327 327 327 326 325 325 327 326 327 327 325 324 330 330 329 328 327
302 304 304 303 305 305 305 306 306 306 305 306 307 309 310 311 312 313 311 311 313 314 312 318 322 322 327 326 326 327 327 326 326 325 325 326 326 326 326 327 330 330 329 328 328
302 303 303 304 304 305 306 306 307 307 307 307 307 308 309 310 310 311 310 311 311 312 312 318 327 323 324 326 326 328 327 326 326 325 325 324 324 327 327 327 330 329 329 328 328

GFSSW_850_thetae_006.txt.gz
Theta_e
306 306 307 307 307 307 308 308 308 308 308 309 309 309 309 309 309 309 311 315 317 317 317 325 323 327 328 328 328 330 327 328 328 328 327 328 325 328 326 326 327 327 327 327 327
309 308 307 306 305 305 305 306 307 308 308 308 308 308 308 309 309 311 320 315 315 314 316 321 325 327 328 329 330 329 328 331 329 327 326 327 326 327 324 324 325 325 326 325 327
305 305 306 308 309 308 306 304 304 305 306 307 307 308 308 308 308 316 315 315 315 314 316 315 325 326 327 328 329 329 330 329 329 329 328 327 327 328 324 323 325 325 326 325 326
304 304 304 304 305 306 308 309 308 306 304 304 305 307 307 307 307 314 316 316 317 317 315 316 318 327 327 327 328 328 329 330 330 329 328 327 328 327 326 326 326 325 326 326 326
297 299 301 301 301 302 304 305 306 309 309 306 304 304 305 306 308 318 317 317 315 318 316 317 318 319 322 328 328 328 329 329 329 328 328 328 327 326 326 328 328 325 325 325 325
301 298 296 296 299 300 302 301 304 305 306 308 308 304 302 305 310 313 312 311 312 315 317 317 318 319 318 322 324 329 329 329 329 329 328 328 328 326 327 328 327 326 325 325 324
303 303 302 300 298 299 301 303 301 303 306 306 308 307 307 305 309 310 310 311 311 311 316 316 317 318 319 317 321 322 325 327 327 326 324 326 325 325 327 327 327 325 325 324 324
305 304 303 303 302 301 300 299 299 300 303 306 307 308 310 310 308 308 310 313 313 314 318 317 318 317 318 319 319 320 320 321 322 323 324 324 326 325 327 327 326 326 325 325 324
303 303 303 303 303 302 302 302 301 299 301 307 308 308 308 308 310 314 310 310 314 315 317 319 320 317 318 317 317 318 321 321 322 323 325 324 326 326 326 325 325 327 327 326 326
301 302 302 302 303 303 302 302 302 300 303 308 310 310 307 309 310 312 312 309 310 315 314 319 321 315 314 315 319 320 320 322 323 324 324 324 325 325 325 325 325 326 327 327 327
302 302 302 302 302 303 303 305 312 313 310 311 309 309 314 314 313 315 313 310 311 314 314 319 319 317 318 318 320 321 321 322 323 324 325 325 325 326 325 325 324 325 327 327 327
302 302 302 302 303 302 308 308 310 307 307 308 311 311 310 311 310 313 314 313 312 314 314 317 316 316 319 320 319 319 322 322 322 323 323 323 324 325 325 324 324 325 326 326 326
302 302 302 303 304 304 309 310 310 308 307 310 311 312 312 311 312 312 314 315 313 313 314 315 319 319 318 318 320 319 320 323 323 323 323 323 324 324 326 325 326 326 326 325 326
303 302 303 304 304 305 308 310 310 309 308 310 311 312 313 313 315 312 314 316 315 313 315 314 316 319 317 317 319 320 321 323 325 325 324 323 325 322 324 324 323 324 325 326 326
302 303 303 304 305 304 303 308 310 309 303 307 309 311 313 314 317 315 314 314 315 314 315 315 315 315 316 316 319 321 321 322 324 325 322 323 322 321 322 324 324 322 324 326 326
302 303 304 304 304 304 305 308 310 308 308 307 312 312 313 314 316 318 316 315 316 315 314 314 316 315 315 317 319 321 321 321 322 323 324 324 323 325 323 324 324 322 325 325 324
302 302 303 304 304 304 304 307 310 311 308 310 309 308 309 316 316 318 316 314 315 315 315 315 314 315 316 316 317 320 320 322 321 323 326 322 324 324 323 323 323 320 324 324 324
301 302 303 302 303 304 305 309 312 307 307 308 309 309 312 314 316 317 317 315 314 314 315 315 316 315 316 316 316 316 316 323 324 324 323 323 324 323 322 323 325 323 324 325 325
301 302 302 304 304 305 305 308 306 306 307 308 308 309 310 310 311 316 317 315 315 314 315 315 316 318 317 317 316 316 318 318 321 322 322 322 323 325 323 322 324 325 326 326 326
302 303 303 304 305 305 305 306 306 306 307 307 308 309 309 309 312 313 317 318 316 316 314 316 317 318 317 317 316 316 318 320 318 323 324 323 325 324 323 323 326 325 324 326 326
302 304 304 306 305 305 305 303 305 305 306 308 308 307 308 310 311 313 314 317 317 316 315 315 317 319 318 316 316 315 317 320 320 319 323 322 322 320 321 320 327 325 326 327 327
301 302 305 306 304 304 304 304 304 305 306 306 307 307 308 309 310 312 314 316 314 313 317 315 314 317 318 318 317 316 316 320 322 321 320 320 322 322 321 321 326 325 327 327 327
301 303 304 304 302 305 303 304 305 305 306 307 307 307 308 309 309 313 315 314 314 313 315 316 316 318 322 318 319 317 319 319 317 318 322 322 321 324 325 326 327 326 326 327 327
302 300 304 303 303 304 305 305 305 304 304 305 306 307 308 310 309 311 312 312 312 312 313 313 316 316 319 320 320 320 319 322 319 320 320 322 323 326 328 329 327 328 327 327 327
302 301 304 300 301 302 302 304 305 305 304 304 305 308 308 310 310 310 310 311 310 311 310 310 318 317 317 319 322 322 321 323 323 321 323 322 323 323 325 329 329 329 327 326 327
301 302 302 303 302 302 302 303 305 305 305 306 305 306 307 309 310 312 310 309 310 310 309 309 316 318 318 318 319 320 323 324 324 322 322 323 324 323 325 329 328 327 326 325 326
301 301 301 302 301 301 302 305 306 306 306 306 307 306 305 308 309 309 310 308 309 309 309 309 316 319 320 320 319 319 322 324 323 324 323 323 322 321 322 327 328 327 327 326 326

GFSSW_850_thetae_009.txt.gz
Theta_e
309 309 308 307 306 306 306 306 307 308 309 309 308 309 309 310 311 311 314 320 316 314 315 315 323 324 327 327 328 330 326 328 327 326 326 326 325 328 327 327 325 325 325 326 327
304 305 305 307 308 308 308 307 306 305 306 308 308 308 308 308 310 313 324 320 318 314 314 315 321 326 328 327 328 327 326 326 325 325 325 326 327 328 326 326 324 326 326 326 325
299 301 302 304 304 305 306 307 308 308 306 305 305 306 307 307 308 316 321 320 321 316 313 311 317 324 327 327 329 327 328 327 326 327 329 327 327 329 326 326 326 325 326 325 326
299 298 298 298 299 301 303 304 305 306 308 309 307 305 304 305 306 315 316 318 317 317 314 310 321 326 324 325 327 327 327 328 327 327 329 327 329 327 327 327 327 327 325 325 326
303 303 302 301 299 298 298 299 301 303 305 306 308 309 306 303 305 314 316 316 316 317 318 311 316 326 324 325 326 325 326 327 328 329 329 328 327 326 327 328 328 328 326 325 326
306 304 303 303 303 302 300 299 298 300 302 306 308 307 309 306 307 310 314 314 312 315 316 313 315 317 318 319 321 326 326 327 327 328 329 327 327 328 328 328 327 327 325 325 326
302 303 303 303 302 302 303 302 301 299 300 302 307 308 310 312 309 308 309 312 313 310 311 315 316 317 318 316 319 319 319 320 323 325 325 327 326 325 325 325 326 326 326 326 326
301 301 301 302 302 302 302 302 302 302 301 300 304 309 310 308 310 311 309 311 312 310 310 310 314 316 317 317 317 317 317 320 321 322 324 323 326 324 324 325 325 326 326 326 326
301 301 301 301 301 301 301 302 302 303 303 302 306 308 310 307 308 312 312 310 310 312 314 313 317 317 316 315 314 315 318 318 320 320 321 320 323 324 325 325 324 325 326 326 326
302 301 302 301 301 301 301 302 304 307 303 304 307 309 307 308 309 309 310 312 308 310 310 312 317 313 311 313 316 315 316 318 320 320 320 321 322 323 324 325 324 324 325 324 325
301 302 302 302 302 302 302 306 307 311 308 309 307 307 309 309 310 310 310 309 307 311 310 314 316 318 317 316 316 316 316 317 318 320 322 321 322 323 323 322 323 323 324 325 325
303 302 302 302 303 303 302 307 308 307 307 307 308 309 309 309 311 311 312 309 310 309 311 315 315 318 318 317 316 317 318 319 320 321 321 320 321 321 321 321 322 324 324 324 323
303 303 302 303 303 303 303 307 306 305 307 308 307 308 308 307 311 311 311 312 309 310 311 312 315 319 320 318 319 317 317 318 320 321 321 321 322 322 322 322 324 325 325 324 325
303 303 302 303 304 304 303 304 305 308 306 306 311 309 310 309 310 310 312 313 313 308 312 312 314 317 318 318 317 318 319 319 320 320 323 321 323 321 321 322 321 323 324 326 326
303 303 302 303 304 303 304 304 307 308 301 305 308 311 312 311 311 310 311 314 314 311 310 312 313 314 317 316 317 318 319 320 320 320 321 322 322 321 320 322 321 320 322 324 325
301 301 301 302 303 303 304 304 307 311 307 307 309 308 310 312 312 314 312 312 315 313 311 310 314 314 315 318 318 317 318 318 318 319 321 322 321 323 321 321 322 322 323 324 324
301 301 301 302 302 303 303 305 306 310 306 307 308 308 308 310 313 313 314 312 313 313 314 312 312 314 314 316 315 315 316 318 318 321 323 320 321 323 322 321 321 321 322 324 324
301 301 301 301 302 303 304 306 307 307 307 307 307 308 309 309 309 313 314 313 313 314 314 314 314 313 315 314 314 315 317 320 323 322 322 321 324 323 321 321 323 324 322 324 323
301 302 303 304 304 304 304 306 305 306 306 307 307 308 308 309 309 310 314 315 313 313 314 314 314 315 315 315 315 314 317 318 318 320 321 321 321 321 322 322 323 322 322 323 324
302 301 305 305 304 304 305 302 305 306 305 306 307 308 307 308 309 310 313 314 317 314 312 314 314 315 315 315 314 313 313 314 312 318 321 322 322 323 323 325 324 323 322 323 324
302 302 304 305 304 304 304 303 304 304 304 306 306 306 307 308 309 309 312 314 314 313 313 313 314 316 316 315 314 312 314 314 316 317 320 321 322 319 321 322 324 322 323 324 324
302 299 304 304 304 301 303 304 304 304 304 305 306 306 307 308 309 307 310 312 312 311 313 313 311 314 315 315 315 315 314 314 316 318 318 320 323 321 318 318 322 322 324 325 325
301 301 303 303 305 302 303 304 304 304 305 305 306 306 307 307 309 308 310 310 311 310 310 311 314 314 315 316 315 314 314 314 314 316 319 320 322 321 320 318 324 323 325 325 325
301 299 302 303 302 303 304 304 305 304 304 304 304 305 306 308 308 309 307 308 309 308 311 309 313 315 315 316 317 316 315 314 316 317 318 320 321 324 325 322 323 324 325 325 326
301 299 302 301 300 301 300 302 304 305 304 304 303 306 306 306 309 310 310 310 308 309 309 307 310 316 317 315 317 319 317 316 316 317 319 320 319 320 325 324 324 325 325 325 326
301 302 302 301 302 300 300 303 305 306 305 305 306 306 306 306 308 309 309 310 309 308 308 306 308 314 319 316 315 316 318 317 318 318 320 319 320 318 322 326 326 326 324 325 326
300 301 301 301 301 298 299 303 303 304 306 306 306 305 305 306 307 307 308 309 309 309 308 308 310 311 319 318 316 316 316 317 319 320 320 320 319 319 323 327 326 326 325 325 326

GFSSW_850_thetae_012.txt.gz
Theta_e
302 303 304 306 307 308 308 308 308 307 306 307 308 308 308 308 309 309 312 322 320 313 314 317 321 322 324 325 329 330 326 326 324 324 324 325 326 326 328 328 327 328 327 327 326
298 298 299 301 303 304 304 305 306 308 309 308 306 306 306 307 308 309 321 317 319 317 314 314 315 319 325 326 327 326 325 326 323 322 324 324 326 327 327 327 326 327 328 327 326
303 303 302 300 298 299 299 301 303 304 305 307 309 308 306 305 305 309 315 316 318 321 318 314 312 319 327 327 326 326 328 326 325 325 325 327 327 328 327 327 328 327 328 328 326
302 302 303 303 302 302 301 299 299 299 301 303 305 306 309 308 304 312 314 316 316 319 317 313 313 325 324 324 326 326 326 327 326 326 326 325 327 328 328 328 328 328 329 328 326
301 301 302 302 302 302 302 302 302 300 299 299 302 306 306 310 306 311 314 316 316 316 316 312 318 323 322 322 324 323 325 327 327 327 327 327 326 327 327 327 328 329 328 328 326
300 301 301 301 301 302 302 302 302 302 301 300 301 305 308 309 309 310 309 314 311 312 315 312 314 319 322 322 322 324 324 325 325 325 325 325 326 327 328 328 328 328 327 326 326
300 300 300 300 300 300 301 301 301 302 302 302 301 303 307 308 309 310 308 309 310 310 309 311 312 315 319 316 317 318 317 316 318 320 320 323 323 325 325 326 327 327 326 325 326
299 300 300 301 301 300 300 300 301 301 302 303 302 307 306 306 308 309 310 310 308 308 310 310 311 315 316 316 315 317 316 317 318 319 320 321 322 322 324 325 324 324 325 326 326
299 299 300 301 301 301 301 300 300 302 304 305 305 306 306 304 306 308 309 310 311 309 310 311 312 316 315 315 314 313 316 315 316 318 319 321 320 322 322 323 323 324 324 325 325
301 301 301 301 301 301 301 301 301 306 308 305 306 305 305 305 308 308 308 308 310 309 308 309 313 313 311 313 316 314 314 315 316 318 318 318 319 320 321 322 322 323 323 323 324
303 303 302 302 302 302 302 301 307 308 307 307 305 305 304 308 310 309 308 308 307 308 306 309 312 314 313 314 315 314 314 314 315 318 318 318 318 319 320 320 319 321 321 323 324
303 303 303 302 302 303 302 303 305 304 305 306 307 307 306 304 308 308 310 307 307 308 308 312 311 313 314 315 315 315 315 314 316 319 319 318 319 319 319 319 320 321 322 322 324
303 302 302 302 302 303 303 304 304 305 305 307 306 307 307 306 308 307 309 308 308 307 309 309 311 313 315 316 316 316 316 317 317 319 319 319 319 320 320 320 321 322 323 325 325
303 302 301 302 302 303 303 303 304 306 307 306 308 307 308 307 308 306 309 310 308 308 308 309 310 312 316 317 318 317 317 317 319 319 318 318 321 319 319 320 319 321 323 324 324
303 302 301 301 302 303 303 303 304 307 306 303 307 310 309 308 308 309 306 311 312 307 309 308 310 312 314 318 319 318 319 318 319 318 318 319 319 320 318 319 320 319 323 324 322
301 301 301 301 301 302 303 304 306 307 306 305 307 306 307 311 310 311 310 310 313 309 308 309 311 311 314 317 318 318 317 316 316 315 318 318 319 319 319 321 320 320 322 322 323
301 301 301 302 302 302 302 304 304 306 306 307 307 307 308 309 310 312 311 310 312 313 312 310 309 311 313 314 315 314 313 314 315 316 318 318 319 319 319 319 320 320 321 323 323
301 301 302 303 302 302 304 304 305 305 306 306 306 306 307 308 308 309 312 312 310 312 313 312 312 309 313 313 315 317 315 314 317 319 321 319 321 321 319 319 321 321 321 323 323
300 301 305 305 303 303 303 303 303 306 305 305 305 307 307 306 306 309 309 313 313 310 312 312 313 313 312 314 315 315 315 314 317 318 319 318 320 320 320 321 321 320 320 322 323
301 301 304 304 304 303 302 302 303 304 304 304 304 306 306 305 306 307 309 313 312 311 310 312 313 313 312 313 314 313 314 315 313 317 320 319 320 322 322 321 322 322 319 321 323
301 301 304 303 304 304 301 302 303 303 304 304 305 306 305 305 307 307 309 311 309 310 311 310 312 315 312 312 312 311 312 312 314 312 317 319 320 317 320 320 321 320 321 322 323
301 297 302 304 303 300 300 303 303 304 304 304 305 305 305 307 308 307 308 307 306 309 309 309 310 312 313 313 313 313 312 313 314 315 315 318 319 318 318 317 319 319 322 322 324
300 301 302 304 302 303 302 303 304 304 304 304 304 304 304 306 307 308 307 308 306 307 309 310 312 312 313 314 312 313 313 313 311 313 316 318 318 319 320 319 319 320 323 323 324
300 298 301 303 301 303 303 302 304 304 304 303 303 302 304 306 306 308 307 306 307 308 310 308 309 313 314 313 313 313 313 313 312 311 315 318 319 320 324 320 318 321 323 324 324
300 298 301 302 300 302 302 301 302 304 304 304 303 304 305 306 307 309 309 309 308 309 310 305 308 311 311 314 315 316 314 314 313 313 314 315 317 317 318 321 319 322 323 324 325
300 301 300 300 302 302 300 301 303 303 304 307 306 305 305 306 307 307 307 308 308 308 308 308 308 309 311 316 316 316 314 314 313 314 314 316 316 315 317 323 322 323 323 324 325
300 300 301 301 301 301 301 302 302 302 303 305 305 304 304 305 305 305 305 306 308 308 309 309 307 307 310 311 315 316 315 314 315 313 314 316 317 318 322 323 322 324 324 325 326

GFSSW_850_thetae_015.txt.gz
Theta_e
300 300 300 300 301 302 303 304 305 306 307 308 309 308 307 308 310 311 312 318 320 316 312 319 318 321 325 322 325 330 330 329 328 327 327 326 327 326 326 328 328 326 327 327 327
304 302 302 301 301 300 300 300 301 301 302 304 306 308 309 309 308 308 318 317 318 315 313 312 316 320 325 326 326 329 331 329 328 327 327 326 326 327 327 327 327 327 327 327 328
302 304 306 302 302 302 302 302 302 301 300 300 301 303 305 307 308 310 312 315 315 314 315 312 312 318 324 326 327 328 330 329 328 327 325 326 327 327 327 328 327 327 327 327 328
300 300 301 301 301 302 302 302 302 302 302 302 300 300 301 305 311 310 312 314 314 315 311 314 317 322 322 325 326 327 327 327 327 327 327 327 327 327 328 328 328 327 327 327 329
299 300 300 300 300 300 301 301 301 302 302 302 302 301 301 307 307 310 313 315 315 317 311 313 319 319 321 322 323 327 326 327 327 327 327 327 327 328 327 324 326 327 328 328 328
298 299 299 300 300 300 300 300 300 301 301 301 302 301 304 306 307 309 309 312 314 310 314 313 318 319 320 321 323 322 324 325 325 326 326 327 326 326 326 324 326 326 326 326 327
297 298 298 299 300 300 300 300 300 300 300 301 302 303 306 306 306 308 309 310 309 308 308 309 314 318 318 320 320 322 324 325 325 325 325 322 322 323 323 323 324 324 325 326 325
298 299 300 299 299 300 300 300 300 300 300 301 304 306 306 303 304 307 308 309 309 308 308 308 309 313 315 316 316 318 319 319 320 320 320 319 322 323 322 323 324 324 325 324 324
299 300 301 300 300 300 300 300 301 301 302 304 305 305 306 304 304 305 306 307 309 309 307 309 312 315 314 316 318 318 320 319 319 319 320 322 322 322 321 322 322 323 323 324 324
302 303 302 302 301 301 301 301 302 306 306 304 306 305 303 306 306 307 309 307 308 308 309 308 313 315 315 316 319 319 318 318 319 319 319 320 321 322 321 321 322 323 323 323 323
303 303 302 302 302 301 301 302 306 307 305 306 306 305 304 304 305 305 309 307 309 307 311 309 312 316 315 315 317 318 320 321 321 318 318 319 320 321 321 322 322 322 322 322 322
302 303 302 301 301 301 303 304 304 304 305 304 303 305 305 304 306 306 305 308 309 309 311 310 313 314 316 315 314 315 318 319 319 317 318 319 320 322 322 322 321 322 323 324 325
302 302 302 301 301 303 301 303 303 304 305 305 306 306 307 306 307 306 308 308 309 310 310 313 314 312 313 315 315 315 316 316 317 318 319 320 321 320 321 322 322 321 322 323 323
301 301 301 302 302 301 303 303 303 304 307 306 307 307 308 307 308 308 306 308 309 310 310 311 313 313 313 314 316 317 316 316 316 317 319 320 323 322 322 322 322 322 324 325 324
300 300 300 302 302 303 302 303 303 306 304 304 309 308 307 308 309 310 308 307 311 310 310 311 311 312 313 314 316 317 317 317 318 319 320 320 322 321 322 322 323 323 324 325 322
300 300 301 301 302 301 302 302 305 307 304 306 307 306 307 309 308 309 310 307 309 311 310 312 311 312 314 314 316 317 318 319 320 320 322 320 321 321 322 322 322 325 325 323 323
300 300 301 302 303 302 302 303 306 305 304 307 307 306 306 308 308 308 310 310 310 312 313 311 311 312 312 314 316 319 320 320 320 320 322 321 321 322 323 322 322 324 326 323 323
300 301 304 304 303 302 303 305 304 303 305 306 305 305 305 307 306 306 309 313 308 312 314 314 312 312 313 314 317 319 320 319 321 322 321 321 320 321 323 322 321 323 324 323 325
300 303 303 303 303 302 303 304 302 304 305 305 304 304 305 305 305 305 308 314 313 311 313 316 315 313 313 315 319 320 320 319 321 322 323 324 324 324 324 325 325 324 323 325 326
300 302 303 303 303 303 304 303 303 304 303 304 304 303 304 305 304 306 306 309 310 310 311 314 316 315 313 314 315 318 319 319 319 320 320 322 324 326 326 326 327 327 326 325 326
300 301 302 304 303 303 305 304 304 303 304 304 305 305 305 304 306 308 307 307 307 309 310 313 315 316 313 315 315 315 319 318 319 318 319 319 320 327 328 327 329 329 326 326 326
300 303 302 303 303 301 304 303 303 304 304 304 305 306 306 306 307 308 307 307 307 307 310 311 315 317 315 314 316 316 318 318 317 319 319 320 320 324 326 326 326 327 324 325 326
300 299 301 303 303 303 303 302 303 304 304 305 305 304 304 304 307 307 307 307 306 309 310 312 316 317 317 316 315 316 316 318 319 320 319 318 320 323 326 325 323 326 324 325 326
300 302 301 302 301 302 302 303 303 303 304 304 305 304 305 305 306 307 308 307 308 308 310 309 311 315 317 317 317 316 316 316 318 318 318 319 319 322 323 328 326 325 325 325 326
300 301 301 302 302 302 300 301 302 304 304 304 306 305 306 307 307 309 308 309 308 309 309 310 312 311 312 312 314 316 315 316 317 317 318 319 319 320 322 324 325 325 325 326 326
300 301 301 301 301 302 301 301 303 303 303 304 306 305 304 305 306 306 307 308 310 309 310 310 312 311 313 314 316 317 317 316 316 316 316 317 319 320 320 321 325 325 325 326 327
300 300 301 301 302 302 303 302 303 304 303 303 304 305 305 305 304 305 304 305 306 307 309 311 311 312 315 314 316 317 318 318 316 316 316 317 319 319 320 324 326 327 326 327 327

GFSSW_850_thetae_021.txt.gz
Theta_e
301 301 301 301 301 302 302 302 302 302 303 303 303 304 308 309 309 310 315 316 317 318 317 325 328 327 326 325 324 327 331 333 334 333 332 331 332 330 331 331 330 331 330 330 330
300 300 300 300 300 300 301 301 301 302 302 302 303 303 304 305 307 312 313 314 315 316 317 321 326 324 327 328 326 328 332 333 333 333 332 332 332 331 331 331 331 331 330 330 330
299 299 299 299 300 300 300 300 300 300 301 301 302 302 303 304 311 314 315 314 313 313 313 318 324 325 325 328 328 329 332 333 333 332 332 333 332 332 332 333 331 331 330 330 330
297 297 298 298 299 299 299 299 300 300 300 300 300 301 302 304 315 319 315 313 312 312 313 314 317 324 326 327 328 332 331 332 332 332 331 333 332 332 332 332 331 330 329 330 329
297 297 297 297 297 298 298 298 299 299 300 300 300 300 301 311 312 313 311 313 314 319 320 316 317 321 328 326 327 330 330 329 330 330 330 330 331 332 332 331 330 330 329 329 329
300 299 299 298 298 298 298 298 298 298 299 299 300 300 308 309 310 311 312 312 314 316 321 318 319 322 325 328 328 327 328 328 328 328 328 330 331 330 331 330 330 329 329 329 328
299 300 301 301 300 300 300 300 299 299 299 299 300 305 308 308 308 309 310 311 311 314 315 320 320 321 323 327 327 327 330 330 330 329 329 328 330 331 329 329 329 329 328 328 328
301 301 301 301 301 301 301 301 301 300 300 300 300 307 309 306 306 307 308 309 310 311 313 315 319 320 322 323 325 327 329 331 330 329 328 328 330 330 329 329 329 328 327 327 327
303 303 302 302 302 302 301 301 301 301 300 302 306 309 309 308 308 308 307 308 310 312 312 313 314 317 320 323 326 328 329 330 329 329 329 329 331 330 328 328 329 328 328 327 327
301 301 301 301 301 301 301 302 307 307 309 310 310 310 310 307 307 310 311 310 311 312 313 314 314 317 320 323 326 327 328 328 328 328 328 329 330 329 328 326 327 328 328 327 327
301 300 300 300 300 300 300 307 308 310 311 311 308 309 308 308 307 307 308 309 312 312 316 316 317 317 319 321 323 324 326 327 328 329 328 328 329 330 328 327 327 327 328 327 326
301 300 300 300 300 300 306 307 307 306 308 306 306 306 306 306 307 306 307 309 311 315 315 317 318 319 318 320 321 322 324 326 327 328 328 329 329 329 329 328 327 327 328 327 327
301 301 300 300 300 308 306 306 306 307 308 307 306 307 308 308 308 308 307 307 310 315 316 316 319 318 318 319 320 322 323 325 326 327 327 327 327 327 328 327 326 326 326 326 327
302 302 300 301 305 306 306 306 306 307 309 308 309 309 309 310 312 310 310 309 309 311 315 316 316 319 319 319 320 322 323 324 325 326 326 325 328 327 327 328 328 327 327 328 327
301 301 300 303 305 306 305 305 306 307 308 308 310 310 309 310 311 313 312 311 310 310 311 315 316 317 319 319 319 321 321 323 324 324 325 324 325 325 326 327 328 329 327 327 326
301 300 301 306 307 306 306 305 306 310 309 308 309 310 310 310 311 310 311 312 312 312 311 313 315 317 317 319 320 320 321 322 324 324 326 325 325 326 327 328 329 329 327 327 328
301 301 305 306 306 306 306 306 310 310 307 308 309 308 309 309 308 310 310 311 314 314 312 312 314 316 318 318 320 321 322 323 325 325 327 324 326 327 328 329 328 329 327 327 330
301 303 307 306 307 307 307 309 310 307 307 307 306 307 306 307 307 307 310 309 311 313 316 312 312 314 317 318 320 321 322 323 326 327 325 325 327 328 329 327 327 327 327 331 333
304 307 307 306 307 306 307 311 307 307 307 307 307 308 308 307 306 307 308 309 312 312 317 319 312 313 316 318 318 321 323 323 324 326 326 329 329 329 329 329 327 328 327 331 333
306 307 308 306 307 308 309 307 307 306 306 307 308 309 308 308 308 308 308 312 311 310 311 317 317 313 317 318 318 320 322 322 325 326 329 328 330 331 329 328 328 330 329 331 334
307 308 308 306 307 307 310 307 306 305 306 308 308 308 308 309 309 309 309 311 310 310 311 314 319 319 315 319 318 319 321 322 324 325 327 329 329 330 330 329 329 331 331 334 335
307 309 305 306 309 309 309 306 305 306 305 306 307 308 309 309 309 309 310 311 309 310 313 314 318 322 319 319 319 319 321 323 326 327 325 328 328 327 328 330 329 331 333 335 334
307 307 307 306 310 308 307 306 306 307 307 306 306 308 309 309 309 309 310 311 309 310 314 315 318 321 324 322 319 319 321 324 325 327 326 327 328 328 329 331 331 333 333 334 333
307 310 307 307 306 307 307 307 307 306 307 307 307 307 308 309 309 310 310 310 309 310 310 311 317 319 326 323 319 320 321 323 325 327 327 326 327 326 329 331 332 333 333 333 333
307 308 306 308 308 306 305 306 308 308 307 306 308 307 308 308 308 309 310 310 309 310 311 313 317 317 319 321 321 320 321 324 325 326 327 326 325 328 331 331 332 333 332 333 333
305 305 305 305 305 305 306 308 307 307 307 307 308 308 308 308 309 309 309 310 311 312 313 313 319 315 318 319 322 321 321 322 324 324 325 325 325 326 329 327 328 328 331 333 333
305 304 305 304 307 306 307 306 306 306 307 307 307 309 309 308 308 307 308 308 309 310 311 312 318 318 321 320 321 321 322 322 322 324 324 323 324 324 325 325 327 328 329 332 333

GFSSW_850_thetae_024.txt.gz
Theta_e
300 300 300 300 300 300 300 301 301 301 302 302 303 304 304 305 307 307 310 316 317 318 319 324 324 331 332 334 327 324 327 331 332 333 333 332 332 332 332 332 331 331 331 331 330
298 298 298 298 299 299 299 300 300 300 300 301 301 302 303 304 306 307 315 313 315 316 317 319 327 328 328 328 329 326 328 329 330 331 332 332 332 332 333 332 332 332 332 331 331
297 297 297 297 297 298 298 298 299 299 300 300 300 300 301 302 310 313 315 315 315 314 317 318 321 327 326 326 329 329 329 328 330 331 332 332 333 333 333 334 332 333 332 332 331
298 298 298 298 298 298 298 298 298 298 299 299 300 300 300 301 314 318 314 314 315 314 314 314 316 321 328 328 326 330 330 329 329 330 331 333 332 333 332 333 332 332 333 332 331
298 298 298 298 298 298 298 298 298 298 298 299 299 299 300 307 310 314 314 313 313 314 315 315 316 318 323 327 328 328 329 330 330 331 331 331 332 332 332 331 331 331 331 332 331
300 300 300 300 300 300 299 299 299 299 299 299 299 299 307 308 308 310 312 313 314 315 317 321 318 318 321 323 328 328 327 328 328 329 330 331 331 330 330 329 330 331 331 331 331
301 301 301 301 301 301 301 301 301 300 300 300 300 302 308 307 308 310 311 311 313 314 316 318 323 321 321 323 324 325 328 329 330 328 330 329 331 332 330 329 329 330 330 330 330
301 301 301 301 301 301 301 301 301 302 302 300 300 304 308 306 307 308 309 309 309 311 313 314 317 318 321 321 323 325 326 329 329 330 330 330 332 332 330 329 329 329 330 330 330
301 301 301 300 300 300 300 301 301 306 307 305 302 309 309 309 309 309 309 308 309 309 311 313 314 317 319 323 325 325 328 328 329 329 329 330 331 331 330 329 330 330 330 330 330
301 301 301 300 300 300 300 300 307 308 309 311 311 311 312 311 309 310 311 311 309 309 311 313 314 316 318 321 325 325 326 327 329 328 329 330 331 331 330 329 330 331 330 328 328
302 302 301 300 300 300 303 309 308 310 312 313 314 312 311 310 308 308 308 308 310 312 313 313 316 317 317 319 321 323 325 325 327 328 329 330 330 330 331 329 331 330 328 328 329
302 301 301 300 300 306 309 309 307 308 308 307 308 308 308 307 307 307 308 308 310 313 315 314 317 319 317 317 318 319 322 324 326 326 328 329 330 331 331 331 330 331 330 329 329
301 301 300 300 302 309 308 308 306 307 308 307 307 307 307 307 308 308 308 308 309 311 314 315 316 316 318 318 318 320 321 324 324 325 326 328 329 330 330 330 329 328 328 328 328
301 301 300 302 307 307 308 307 306 307 308 310 309 309 308 309 310 311 310 309 309 309 311 314 315 315 318 319 319 321 320 321 322 324 327 326 329 331 331 330 329 329 328 329 328
301 301 301 308 307 308 306 307 306 307 312 311 311 311 311 311 313 313 313 311 311 311 310 310 314 316 316 318 319 320 320 321 322 323 326 325 328 328 329 328 328 329 328 328 328
300 301 303 307 308 309 307 307 307 310 313 310 310 309 310 310 311 312 313 312 313 313 311 310 310 313 316 316 318 320 320 320 322 324 326 326 327 328 328 328 328 330 329 329 329
301 303 308 308 307 307 307 308 310 312 309 307 307 307 307 308 309 311 312 312 313 316 314 313 311 312 313 316 317 319 323 323 324 324 326 325 326 328 328 328 329 331 330 329 328
301 307 308 308 307 307 308 309 310 309 306 307 307 308 308 308 308 308 308 310 311 311 312 317 319 312 313 315 318 319 323 323 323 324 325 324 327 327 328 329 329 327 328 328 331
303 310 309 309 308 308 309 311 309 307 306 306 307 309 310 310 310 310 307 308 310 312 314 315 317 316 313 315 317 319 319 322 324 324 324 326 327 328 329 329 330 327 328 332 333
307 310 309 309 309 308 311 310 308 307 306 307 307 309 310 309 310 309 310 311 311 311 311 312 314 314 317 314 315 318 320 321 324 325 328 327 328 329 331 332 330 329 332 335 336
308 310 310 307 309 309 311 308 308 306 306 307 307 309 308 309 310 310 311 311 312 310 310 311 313 313 315 318 314 318 319 321 324 324 327 328 328 335 333 331 331 332 330 336 336
309 312 309 308 311 311 310 308 307 308 307 308 308 308 308 309 310 310 311 312 311 311 311 313 314 317 316 319 315 318 319 321 324 326 326 327 329 332 333 330 333 333 333 336 336
310 309 310 308 312 310 308 308 308 308 309 308 308 309 308 309 311 311 311 311 311 311 313 313 317 318 318 319 321 319 320 322 325 328 328 327 329 330 329 332 331 335 336 336 335
310 310 309 307 309 309 308 308 307 308 308 308 308 309 310 310 309 310 310 311 311 311 310 311 314 316 320 321 322 323 319 321 325 326 327 328 329 330 330 331 333 337 337 336 335
309 308 308 308 309 307 307 308 308 308 307 307 309 308 308 309 309 309 310 310 311 311 311 312 316 316 314 316 320 322 323 320 323 325 327 327 328 328 332 332 336 336 335 335 334
307 306 306 305 307 308 309 309 308 308 308 308 308 308 308 309 309 310 309 309 311 311 312 313 316 315 316 314 316 320 322 323 322 324 326 327 329 331 332 332 334 335 334 334 334
307 307 306 306 308 309 310 309 308 308 309 307 308 310 309 308 309 308 309 308 309 310 311 312 315 317 317 314 317 322 323 323 323 325 327 328 330 332 330 331 334 334 334 334 334

GFSSW_850_thetae_027.txt.gz
Theta_e
298 298 298 298 298 299 299 299 300 300 300 301 301 302 303 304 307 307 308 318 316 318 317 320 323 321 331 332 332 328 321 323 326 328 330 331 330 331 332 331 332 332 332 332 331
298 298 298 298 298 298 298 298 298 299 299 300 300 301 301 302 304 307 314 313 314 315 317 318 319 326 333 332 334 333 322 322 323 326 328 329 330 331 331 332 332 332 332 332 332
298 298 298 298 298 298 298 298 298 298 298 299 299 300 300 300 303 309 313 314 314 315 315 318 318 321 328 328 330 330 329 325 325 326 327 329 329 330 331 331 333 332 332 332 332
299 299 299 299 299 299 299 299 299 299 299 299 298 299 299 300 310 316 315 314 314 315 313 315 316 316 316 326 326 327 328 328 327 326 327 327 329 330 331 331 331 331 331 330 332
300 300 301 301 301 301 300 300 300 300 300 300 299 299 299 304 303 312 309 312 314 314 313 314 314 315 314 317 325 325 324 326 328 328 328 328 328 329 330 331 331 331 330 329 329
301 301 301 301 301 301 301 301 301 301 301 300 300 300 304 307 304 306 309 310 311 315 314 314 314 315 316 316 317 321 326 326 326 328 329 329 329 329 330 330 329 329 330 329 329
301 301 301 301 301 300 301 301 301 301 301 302 302 302 307 305 302 305 310 311 312 313 314 315 317 319 318 316 318 320 321 322 325 326 325 326 327 327 327 328 329 330 329 329 329
301 301 301 301 300 300 300 300 300 301 302 306 306 303 307 302 306 306 305 309 310 311 311 313 314 314 316 320 320 319 319 321 322 323 325 325 327 327 328 328 329 329 329 329 329
302 302 302 301 300 300 300 302 302 304 306 307 308 307 308 311 310 310 308 307 309 309 309 310 312 313 315 316 317 319 320 321 322 323 324 325 327 327 328 328 328 328 329 329 329
301 301 301 301 300 300 305 307 307 308 309 311 311 311 309 311 310 310 311 311 311 309 308 309 311 311 312 313 319 321 322 322 322 323 325 325 326 326 327 327 327 328 329 329 329
300 301 301 300 300 304 307 307 308 309 310 309 309 313 313 313 312 309 309 308 309 310 308 310 309 312 313 313 316 319 322 323 323 323 324 324 325 325 326 327 326 327 327 328 328
300 301 301 300 301 309 308 308 307 306 306 307 307 307 307 308 309 308 308 307 308 308 311 311 310 311 314 315 315 317 317 318 320 323 323 324 324 325 326 326 326 327 327 328 329
301 300 301 301 305 306 308 307 307 307 306 306 307 308 308 307 308 307 307 308 307 307 308 311 313 313 313 315 316 315 316 316 317 318 320 321 321 322 323 325 327 328 328 328 328
301 301 301 302 307 309 307 307 307 307 305 308 311 311 309 308 308 308 308 308 308 307 307 307 310 315 314 313 316 316 316 317 317 318 318 320 322 322 322 324 325 326 327 328 327
301 301 303 307 308 309 308 308 307 307 311 310 309 308 308 309 311 312 312 311 310 309 308 307 308 310 313 314 315 316 317 317 318 318 318 320 320 322 322 325 324 323 326 327 327
301 303 306 307 309 307 307 308 308 310 311 309 308 307 307 308 308 310 313 313 313 310 310 310 310 308 308 310 315 315 316 317 317 317 318 319 320 321 321 322 324 324 326 326 326
301 306 307 308 309 308 308 308 309 309 308 306 306 308 308 309 310 310 310 313 312 313 314 314 314 310 310 309 310 312 313 315 317 318 319 318 321 322 321 323 324 323 325 327 328
302 307 308 310 309 306 309 309 306 308 308 307 306 308 307 308 309 309 310 309 311 312 313 312 312 314 315 309 309 310 313 315 318 319 318 319 320 321 322 323 324 324 326 331 335
303 310 310 310 309 307 309 308 308 309 308 306 306 306 307 308 309 310 310 310 308 310 311 313 313 313 312 312 311 310 310 315 316 318 318 319 319 320 320 321 324 324 327 337 338
303 308 310 310 308 309 308 309 309 308 308 308 308 308 309 309 309 309 310 310 311 311 311 311 311 310 310 311 312 314 312 315 315 317 319 321 320 321 323 324 323 325 328 337 338
308 311 311 311 310 310 308 309 307 307 307 308 308 308 309 309 307 309 309 310 312 311 310 309 310 310 310 311 312 315 312 312 314 315 319 321 321 322 324 324 324 325 335 336 337
309 310 310 308 310 309 308 308 307 307 308 308 308 308 309 308 309 309 310 311 310 310 309 311 313 315 313 312 312 313 314 312 314 317 318 319 321 327 329 326 325 333 335 336 336
306 310 310 309 309 309 309 307 307 308 308 308 308 308 308 309 310 309 310 309 309 311 311 312 312 314 315 314 313 314 317 315 315 318 317 320 320 321 324 327 327 334 335 336 336
308 310 308 308 308 308 307 308 308 308 307 307 307 308 309 308 309 310 310 310 310 311 311 311 311 312 315 316 316 318 319 319 316 317 318 320 321 320 323 326 333 335 335 335 335
309 307 307 306 306 306 308 309 309 309 308 308 308 308 307 309 308 308 309 310 310 311 312 311 314 313 313 315 315 315 316 316 318 318 319 320 322 322 327 335 335 335 335 335 335
308 307 307 307 306 307 309 310 309 309 308 309 309 309 309 309 309 310 309 308 308 311 311 312 316 314 316 314 315 315 314 315 317 319 320 318 321 324 327 335 334 334 334 334 335
305 306 306 306 306 306 308 309 309 308 308 308 308 310 310 310 309 309 309 309 308 309 308 312 312 314 315 316 315 316 314 313 317 319 321 318 320 328 331 333 332 333 334 334 334

GFSSW_850_thetae_033.txt.gz
Theta_e
299 299 299 300 300 300 299 299 299 299 299 299 299 299 299 300 301 302 304 311 311 312 312 315 317 324 318 329 329 322 319 320 322 323 325 326 327 330 330 329 328 330 331 331 332
299 300 300 300 300 300 300 300 300 300 300 300 299 299 299 299 300 301 307 308 308 307 309 313 316 319 317 322 330 323 319 319 319 322 324 322 322 324 326 326 327 328 329 331 331
300 300 300 300 300 300 300 300 300 300 300 300 300 300 300 300 299 304 311 312 312 313 308 312 315 315 324 329 329 329 329 322 322 322 323 323 323 325 324 324 325 326 328 329 330
300 301 301 301 300 300 300 300 300 300 300 300 300 300 300 301 299 312 309 312 311 311 314 308 315 315 313 320 328 329 329 329 327 326 325 325 325 325 324 324 325 326 327 328 328
301 301 301 301 301 300 300 300 300 300 300 299 300 300 301 305 303 303 303 307 310 308 315 311 311 314 312 312 317 320 326 328 330 330 329 329 328 327 326 326 327 327 327 328 329
300 300 300 300 300 300 300 300 303 306 304 300 300 300 305 306 305 304 305 303 304 305 310 315 313 313 313 312 315 315 318 319 322 323 324 323 323 324 325 326 327 327 328 328 327
300 300 300 300 300 300 302 305 306 307 307 304 302 302 308 306 307 308 307 306 303 305 310 310 313 313 314 313 314 314 313 315 316 316 316 321 322 323 324 324 325 326 326 326 326
300 300 300 300 300 301 307 306 306 305 307 308 306 307 308 308 309 310 311 310 308 304 308 311 310 309 312 314 315 316 313 314 316 316 317 319 323 323 324 325 325 325 326 326 326
300 300 300 300 301 303 307 306 308 308 307 305 307 311 308 306 309 309 311 307 309 305 307 309 308 309 311 311 313 313 318 317 317 318 318 319 322 322 323 323 323 324 325 325 325
300 300 300 300 301 303 307 306 304 309 306 306 308 308 307 308 309 307 308 307 307 307 307 308 308 307 306 310 315 316 317 318 319 318 318 319 320 321 322 322 322 322 323 323 324
300 300 300 301 303 304 307 306 307 306 305 306 305 306 307 308 308 308 307 306 307 308 307 306 304 307 309 310 312 312 314 316 317 317 318 318 319 319 320 321 321 322 323 323 323
300 300 301 302 305 306 307 308 307 306 305 307 306 306 307 307 308 308 308 306 307 305 305 305 306 308 308 309 310 310 311 312 314 315 315 317 318 317 318 319 321 321 321 322 323
301 300 301 303 303 303 305 307 307 307 305 306 307 308 307 307 308 308 307 306 306 305 304 305 307 308 308 308 309 310 311 312 313 314 314 314 315 315 315 315 317 320 321 322 322
301 301 302 303 304 305 304 307 308 307 303 307 308 309 306 308 308 309 309 306 306 305 305 304 305 306 306 308 307 307 311 312 314 313 314 314 315 314 315 315 315 316 318 318 319
301 301 302 305 306 307 306 307 308 307 301 307 307 307 307 308 307 309 310 310 310 309 305 305 305 305 306 307 308 309 308 310 313 313 312 313 312 314 314 314 314 315 316 317 318
301 301 302 306 307 308 307 308 308 302 302 308 307 307 306 306 307 309 310 310 309 311 310 307 307 306 305 306 306 307 308 309 309 311 312 313 313 314 313 314 314 316 318 320 321
301 302 303 306 308 308 308 308 302 303 307 308 308 308 307 306 307 308 308 309 310 312 312 311 306 308 307 306 307 306 305 309 310 311 313 313 313 314 314 315 315 315 317 319 319
302 304 303 307 309 308 308 302 300 307 308 307 308 307 306 306 307 308 308 310 311 311 311 312 312 311 312 310 310 305 304 307 312 314 312 313 315 315 314 315 316 316 317 318 319
305 307 309 308 309 309 307 302 306 307 307 308 308 307 306 306 307 306 307 310 311 310 312 312 311 311 311 310 309 309 305 306 306 309 310 313 313 314 315 315 315 314 316 317 318
306 309 311 310 309 309 303 306 306 307 307 308 308 307 307 306 307 306 308 310 311 310 308 309 310 310 310 309 309 308 309 306 305 310 312 313 314 315 315 315 315 315 315 319 324
306 310 310 310 308 308 301 304 307 307 307 308 307 307 306 307 307 307 309 309 310 309 310 308 308 310 309 308 306 308 309 309 306 306 311 313 314 313 315 315 315 314 317 320 331
307 305 310 309 306 300 301 306 306 308 307 308 307 307 306 307 307 308 308 309 309 309 311 309 308 311 309 307 308 309 309 310 309 310 309 311 312 314 312 313 314 317 324 327 334
307 308 308 306 299 298 302 305 306 308 308 308 308 307 307 307 308 308 309 309 307 309 310 309 307 309 307 310 310 311 311 310 310 309 312 310 311 313 312 313 323 330 332 333 335
308 304 306 305 304 303 303 305 307 306 308 307 307 306 307 307 307 308 308 308 308 309 310 310 309 309 310 308 309 310 312 315 314 313 313 313 312 313 313 315 315 324 333 333 336
306 303 305 301 302 302 302 304 307 308 308 307 307 307 308 309 308 308 307 308 308 308 309 308 310 309 310 310 311 312 312 312 315 314 315 315 315 314 315 316 317 320 333 334 335
296 301 302 302 303 304 303 305 307 307 307 308 308 308 307 308 309 309 309 309 309 307 309 306 308 311 311 311 311 313 313 313 314 315 314 314 314 315 316 319 328 328 332 334 335
298 300 302 302 302 303 303 306 306 306 306 307 308 308 307 307 307 306 306 307 308 308 305 307 309 309 309 309 313 313 314 314 315 313 313 316 316 319 323 328 330 330 333 334 335

GFSSW_850_thetae_036.txt.gz
Theta_e
299 300 300 300 300 300 300 300 300 300 300 300 300 300 300 300 301 301 303 306 306 308 309 310 314 321 321 326 325 321 317 318 321 323 323 325 322 328 328 328 328 329 329 330 331
300 300 300 300 300 300 300 300 300 300 300 300 300 300 300 300 301 302 303 305 305 306 307 308 311 312 319 319 328 320 316 318 318 321 323 323 322 323 325 324 325 327 327 329 330
301 300 300 300 300 300 300 300 300 300 299 299 300 300 300 300 301 304 311 309 307 306 308 307 309 311 322 324 326 327 324 318 318 320 322 322 322 323 322 322 325 326 326 327 328
300 300 300 300 300 300 300 300 300 301 301 302 300 299 300 301 300 309 310 307 307 307 306 312 312 315 314 324 327 328 327 326 324 322 324 322 323 323 323 323 324 325 325 326 326
300 300 300 300 299 300 300 302 305 305 305 306 304 301 302 304 304 304 303 302 303 303 306 314 309 314 311 313 321 327 326 328 329 329 329 328 329 328 328 328 327 326 325 326 327
300 300 300 300 300 300 303 305 306 304 306 307 306 304 305 304 305 307 307 306 307 306 303 310 313 311 312 311 316 315 318 323 327 326 324 324 324 324 325 326 327 327 326 326 326
300 300 300 300 300 301 306 305 307 305 306 307 305 305 306 304 307 310 311 310 308 309 305 307 312 313 311 312 313 313 313 313 314 317 320 323 323 323 324 324 324 324 324 325 325
300 300 300 300 300 302 304 305 305 307 307 305 304 307 306 308 308 309 309 309 308 307 305 304 309 309 310 312 313 313 311 314 316 314 316 319 322 323 324 324 323 323 324 324 326
300 300 300 301 301 302 303 305 305 304 308 305 306 308 307 307 308 308 308 308 309 309 307 306 308 308 310 310 310 312 316 314 315 315 317 317 320 320 322 323 322 322 323 323 324
301 301 300 301 301 303 303 304 304 304 306 306 307 307 307 308 307 308 308 308 307 308 307 306 307 305 305 309 313 312 315 316 317 316 316 316 318 318 320 321 321 322 322 323 323
300 301 301 302 302 303 303 303 305 305 305 306 306 305 306 307 307 308 308 307 306 307 305 306 304 305 308 309 311 311 312 314 315 316 317 317 318 318 318 318 319 320 320 321 321
300 300 301 303 302 303 304 307 307 306 306 306 306 306 307 307 307 307 308 306 306 306 304 303 303 306 307 308 309 309 310 310 311 312 313 313 313 313 313 314 317 318 319 319 321
301 300 301 303 303 304 305 307 307 307 305 306 307 307 308 306 307 307 307 306 305 305 304 303 304 306 306 307 307 308 309 310 311 312 312 312 314 315 314 313 315 315 316 317 318
301 301 301 303 306 306 305 307 308 307 302 305 307 307 307 306 307 306 309 307 306 305 304 303 303 305 305 306 307 307 309 311 312 312 312 312 314 314 314 314 313 314 315 316 317
301 301 301 303 306 307 307 308 308 307 299 305 306 306 307 306 306 307 309 309 307 306 306 307 304 304 305 305 307 307 307 308 311 310 311 311 311 313 312 312 311 312 313 314 315
302 302 302 303 308 308 308 308 307 302 300 307 306 306 306 307 306 307 307 308 310 311 310 310 308 304 304 305 306 307 308 307 307 308 310 311 311 312 311 311 312 311 313 315 315
304 305 303 305 308 308 308 307 302 302 305 307 307 306 306 306 306 307 307 307 309 311 312 311 308 308 305 305 305 305 304 306 308 308 308 310 311 312 310 311 312 313 314 316 317
305 306 305 307 309 309 308 300 299 306 306 307 307 306 306 305 305 306 306 308 310 311 312 314 311 306 308 305 304 304 303 305 312 312 309 310 313 312 312 312 313 313 314 316 317
304 310 309 309 309 309 307 301 304 306 307 307 307 307 306 305 306 305 305 308 310 310 312 313 312 310 310 310 307 307 304 306 305 307 306 309 310 311 312 313 312 312 314 316 318
304 310 310 310 309 308 303 306 304 306 307 307 308 307 306 305 306 305 306 308 309 309 308 310 310 310 310 311 309 307 306 305 302 307 310 310 311 312 312 312 314 313 312 319 322
305 310 309 309 308 307 301 303 305 307 307 308 308 308 306 306 306 306 308 308 309 309 309 308 308 310 308 308 306 307 307 307 303 304 310 312 311 310 312 312 312 313 324 327 325
305 305 308 309 305 297 299 304 305 307 307 307 307 306 306 306 306 307 308 308 308 308 309 309 308 310 309 307 307 307 307 308 309 309 306 307 308 309 310 311 312 314 319 331 329
306 306 307 305 297 296 300 304 305 307 307 308 308 307 306 306 308 307 308 308 307 308 309 309 308 309 307 309 309 309 310 308 307 307 309 309 308 309 310 312 313 314 321 332 335
305 302 305 304 303 302 303 304 306 306 307 307 306 306 307 307 306 308 308 307 307 308 308 309 308 309 306 308 308 309 310 310 312 312 309 310 310 311 311 312 313 314 318 332 335
301 302 304 299 299 299 302 304 306 306 307 307 307 307 309 310 308 308 308 308 308 308 307 306 310 308 308 309 310 310 310 310 312 312 314 313 314 313 312 312 313 316 326 332 335
299 299 301 300 301 301 301 304 305 305 305 306 307 307 308 308 307 308 308 308 309 308 307 308 310 309 309 309 310 311 310 310 311 311 312 313 314 313 312 313 320 323 327 332 335
302 298 299 300 299 300 299 303 304 304 305 306 306 307 306 307 307 307 306 306 306 308 309 309 310 307 307 308 309 309 309 311 310 311 312 313 312 312 317 320 320 322 329 331 334

GFSSW_850_thetae_042.txt.gz
Theta_e
300 300 300 300 300 300 300 300 300 300 300 301 301 301 301 301 302 305 307 306 303 303 306 308 311 321 323 327 324 323 326 327 325 324 322 322 323 323 325 330 331 332 334 332 331
300 300 300 300 299 300 300 300 301 302 302 302 303 302 301 302 303 307 308 304 304 304 308 310 310 317 322 323 326 325 328 328 327 325 322 321 322 324 327 327 332 331 331 330 331
300 300 300 300 300 300 300 303 303 303 303 303 303 304 304 304 307 311 309 308 308 307 309 311 312 311 319 323 324 327 328 328 327 325 321 321 323 324 325 328 332 333 331 330 329
300 300 300 300 300 301 302 303 303 303 303 303 304 304 303 303 309 308 306 305 304 304 311 314 313 312 316 320 322 326 327 327 327 326 322 322 322 323 323 324 328 329 329 328 329
300 300 300 300 300 301 302 304 304 304 304 304 305 304 305 308 308 308 309 307 308 308 308 309 314 314 315 317 319 323 324 325 325 326 325 323 324 324 325 325 324 325 326 327 329
300 300 300 300 300 301 302 304 304 304 304 304 305 304 310 310 308 310 308 310 310 309 309 308 312 314 315 315 318 320 321 322 324 325 326 327 327 327 328 328 329 329 330 329 329
300 300 300 300 301 302 302 303 303 303 303 304 305 305 311 308 307 308 310 310 309 309 310 309 308 311 315 316 315 316 319 320 323 323 326 325 329 330 327 328 329 329 329 329 329
300 300 300 301 301 302 302 302 302 303 303 306 306 307 310 307 307 309 309 309 309 308 308 309 308 308 310 315 315 316 317 319 321 322 322 325 328 329 328 327 328 328 328 328 328
300 300 301 301 302 302 302 302 303 304 305 306 310 311 309 307 307 307 309 309 309 309 309 308 308 309 309 313 315 317 317 319 319 321 322 322 325 326 325 326 327 327 327 327 327
301 301 300 301 302 302 303 303 304 304 305 306 306 311 308 308 307 307 308 308 309 309 309 310 310 312 312 311 313 315 317 317 318 320 321 322 323 324 323 325 325 325 326 326 326
300 301 301 301 303 303 304 308 310 310 309 308 309 308 308 308 307 307 308 308 309 309 311 310 311 311 311 312 312 313 315 318 318 319 320 321 322 323 323 323 324 324 324 325 325
298 301 301 301 304 306 306 308 308 308 309 308 308 308 308 307 308 307 308 308 309 310 310 310 311 311 311 310 311 312 314 316 318 317 319 320 322 322 323 323 323 324 324 324 324
298 300 302 301 304 307 308 308 308 308 310 308 308 308 308 307 308 308 307 308 310 310 310 310 310 310 310 310 310 310 312 313 315 317 318 319 321 322 322 322 322 322 322 322 322
299 300 304 301 305 307 309 308 308 308 312 308 309 308 307 307 308 307 308 308 309 309 309 310 310 310 310 310 311 310 310 311 313 316 318 319 321 321 321 322 322 321 321 321 321
302 301 305 303 305 309 308 308 308 308 312 308 309 307 308 308 307 307 307 309 309 309 310 310 310 311 311 311 310 310 310 310 313 314 317 317 319 319 321 321 322 322 321 320 320
303 306 303 302 308 308 308 307 307 312 311 309 308 309 310 309 308 307 307 307 308 310 312 311 311 312 312 312 312 310 310 310 311 314 316 317 318 319 320 320 321 321 320 319 319
305 306 303 307 310 308 308 308 312 312 309 309 309 310 310 309 308 308 308 309 311 312 311 312 312 313 312 313 312 310 309 311 312 313 314 315 316 318 319 319 319 320 319 319 320
305 307 305 308 309 308 309 309 311 309 309 309 310 310 310 308 309 308 308 309 311 311 312 314 313 311 311 314 312 310 310 311 312 313 313 313 315 317 317 318 317 317 319 319 321
305 309 309 309 309 307 309 310 309 308 309 310 310 309 309 309 309 309 309 309 310 310 311 312 311 311 312 313 313 312 311 311 311 312 315 313 314 315 316 318 318 319 319 323 324
304 311 311 309 308 309 310 308 308 307 308 309 311 309 310 310 309 309 309 308 309 309 310 310 313 311 311 311 312 311 311 311 311 315 314 314 315 315 317 317 317 321 321 320 323
307 311 309 309 307 309 310 306 307 307 307 310 310 310 310 310 309 309 309 309 309 309 309 310 311 311 311 312 311 312 311 314 313 314 313 314 315 317 319 320 320 320 319 320 328
307 311 308 306 309 309 307 306 304 308 308 309 309 310 310 310 309 309 309 309 308 309 310 311 312 312 311 311 311 311 312 313 317 314 314 315 317 319 320 319 319 319 318 319 326
306 307 307 303 310 308 304 305 306 308 309 309 309 309 309 309 310 310 310 309 308 309 310 311 312 312 310 313 312 311 310 311 313 315 318 315 315 319 318 317 317 318 318 318 319
304 309 308 306 306 305 305 306 307 306 307 308 309 308 309 310 310 309 310 309 308 309 308 309 312 311 313 311 310 310 311 311 312 314 313 313 315 316 317 317 317 317 317 317 317
304 306 306 308 309 307 307 306 306 307 308 307 308 309 309 309 310 310 309 310 309 308 309 310 313 311 311 311 310 310 310 310 311 312 313 313 314 315 316 316 317 316 315 316 317
304 304 304 305 306 307 306 306 305 306 306 306 307 308 308 309 308 309 309 310 311 310 310 311 314 312 312 311 311 311 311 311 310 311 312 312 313 313 313 312 313 313 315 316 318
302 302 301 304 306 306 307 306 306 306 305 305 306 307 308 308 308 308 308 308 309 310 309 311 311 312 312 310 311 311 310 311 311 311 311 312 314 314 314 314 314 313 314 317 319

GFSSW_850_thetae_045.txt.gz
Theta_e
300 300 300 300 300 300 300 300 300 302 302 302 302 302 301 301 302 310 312 310 310 307 306 310 313 315 321 323 326 327 330 331 329 328 326 325 325 324 327 328 329 332 335 336 338
300 300 300 300 300 300 300 302 303 303 303 303 303 303 303 303 304 311 311 308 303 303 310 312 313 315 321 324 326 329 331 330 329 328 327 326 325 325 326 327 329 334 334 333 335
300 300 300 300 300 300 301 303 303 303 303 303 304 304 303 303 313 314 308 306 306 308 311 311 313 314 317 322 324 328 331 330 329 328 327 327 324 324 326 328 330 332 334 333 334
300 300 300 300 300 301 301 302 303 303 304 304 305 304 303 309 314 311 308 308 305 307 310 314 314 315 316 319 323 327 326 328 329 328 328 328 324 324 325 327 327 330 334 333 332
300 300 300 300 301 301 302 302 303 303 303 304 305 305 312 314 311 310 310 312 312 310 310 311 313 316 318 318 319 323 325 326 326 328 328 328 328 326 325 325 326 326 331 333 332
300 300 300 300 301 301 302 302 303 302 303 305 305 307 315 314 310 310 311 311 312 311 311 311 311 314 316 318 319 319 321 322 323 325 326 328 329 328 328 326 326 326 325 328 330
300 300 300 301 301 302 302 302 302 302 303 305 306 309 314 310 310 310 311 311 312 311 311 312 311 311 314 318 317 318 320 320 322 323 324 326 328 329 328 328 328 328 328 329 330
300 301 300 300 301 302 302 302 303 303 303 306 307 312 314 309 309 309 310 310 311 311 311 311 311 311 311 311 314 318 319 320 321 322 323 324 327 328 327 328 329 329 329 330 330
300 301 301 301 301 302 302 303 304 304 305 306 313 315 314 309 309 308 309 309 309 310 310 311 311 312 312 313 313 314 318 320 320 321 322 322 325 326 325 327 328 329 330 330 330
298 300 301 301 301 302 304 307 309 308 308 312 312 313 311 310 309 308 309 309 309 310 311 311 312 315 315 314 313 314 315 317 318 320 321 321 323 324 324 325 328 328 329 329 329
300 298 301 302 301 305 305 313 313 315 312 311 311 310 309 309 309 309 309 309 310 311 313 313 313 315 316 315 315 315 315 315 317 319 320 321 322 323 324 324 324 326 327 328 328
307 300 300 302 301 306 310 311 310 310 311 311 310 309 309 309 309 309 309 309 310 312 312 313 313 314 313 313 313 313 313 315 315 316 319 321 321 322 323 325 324 325 326 327 327
307 304 301 304 301 308 309 310 310 310 312 311 310 310 310 309 310 310 309 309 311 311 311 312 312 312 312 312 312 313 313 313 314 316 317 319 321 322 323 323 322 323 324 325 326
307 304 305 304 307 309 312 310 310 310 315 312 311 311 309 310 311 309 308 309 311 311 311 311 311 311 311 311 312 313 313 313 313 313 315 317 321 322 322 323 324 323 324 324 324
307 304 304 304 311 312 311 310 310 311 319 311 311 309 309 310 310 310 308 308 311 311 310 310 311 311 311 312 313 313 313 313 313 313 314 315 318 319 321 323 323 324 323 323 323
307 305 303 304 310 311 310 310 311 317 317 311 311 311 312 311 311 310 309 309 309 311 312 312 313 313 313 314 314 313 313 314 313 313 314 314 317 318 320 321 322 323 323 323 323
307 305 303 310 313 310 310 311 317 317 312 312 312 312 312 312 311 310 310 310 311 311 312 312 312 313 314 314 315 314 314 314 312 314 313 314 315 317 319 321 322 322 322 322 322
307 306 308 311 312 311 311 314 315 312 311 312 312 312 312 311 311 311 311 311 311 311 312 313 313 312 313 313 314 315 315 313 311 312 313 316 316 316 319 321 321 320 319 321 321
307 312 312 313 312 310 311 316 313 312 309 311 312 313 312 311 311 311 311 310 311 311 311 313 312 312 312 313 313 314 316 314 312 312 313 316 316 318 317 319 320 321 320 321 324
304 312 314 311 312 309 314 314 311 310 309 311 313 312 312 312 312 311 311 311 310 310 310 311 312 311 312 313 314 314 314 318 313 313 312 314 316 317 317 317 320 321 322 322 322
310 311 312 310 309 311 315 312 309 308 308 311 313 312 312 312 312 312 311 311 311 311 311 311 312 312 311 312 314 314 314 315 315 315 314 315 318 318 319 318 319 321 322 322 326
309 313 312 307 312 312 313 308 306 309 310 311 312 311 311 311 312 312 312 311 311 310 310 311 313 313 311 312 313 314 313 313 318 316 315 315 318 318 319 323 319 322 321 321 322
308 309 310 309 315 315 311 310 308 309 311 311 310 310 311 311 312 313 312 311 310 311 311 313 312 314 311 312 314 315 314 312 314 315 318 317 318 318 320 322 321 321 320 320 320
308 311 310 309 309 310 312 312 309 308 309 309 310 310 310 311 311 313 312 311 311 311 311 311 313 312 315 312 312 313 313 314 313 315 314 313 314 316 316 317 320 319 320 318 319
309 310 308 310 310 310 310 312 310 309 309 309 310 310 310 311 311 311 312 312 311 311 311 312 316 313 312 312 311 312 311 311 311 312 313 313 313 313 316 317 318 317 317 316 319
307 307 306 305 309 309 308 311 310 309 309 309 309 309 308 310 310 310 310 311 312 313 312 312 314 313 313 312 312 312 312 312 311 312 312 311 312 312 313 314 315 315 315 316 319
303 303 303 306 308 310 309 308 309 307 307 308 308 309 310 310 309 309 309 310 311 312 313 312 313 313 313 312 312 312 312 312 312 312 312 312 312 313 314 315 316 316 316 316 317

GFSSW_850_thetae_048.txt.gz
Theta_e
300 300 300 300 300 300 300 301 302 303 303 303 303 303 303 303 302 304 313 313 313 312 310 309 311 315 316 320 324 326 330 331 330 329 329 328 327 326 325 325 326 329 331 336 339
300 300 300 300 300 300 301 302 303 303 303 303 303 303 303 303 303 310 313 311 310 308 305 312 312 314 316 319 322 325 329 330 329 329 329 328 328 327 326 326 328 328 330 334 337
300 300 300 300 300 301 301 302 302 303 303 304 304 305 304 303 316 315 314 310 305 307 308 313 312 314 316 317 321 324 328 329 329 329 329 328 328 327 326 326 326 329 331 335 335
300 300 300 300 301 301 301 302 302 303 303 303 305 305 304 308 317 316 309 309 307 310 313 312 314 314 316 318 318 323 324 327 328 329 329 330 329 329 327 326 326 326 330 334 334
300 300 300 300 301 301 302 302 302 302 303 303 305 308 313 320 314 311 311 312 313 314 312 312 313 316 318 317 318 319 321 324 325 326 327 328 329 330 328 327 326 326 326 328 335
300 300 300 300 301 301 302 302 302 302 303 304 306 307 317 320 311 312 312 313 313 313 313 313 313 313 313 316 319 319 319 320 320 323 326 327 328 329 329 329 328 326 327 327 333
299 300 301 301 301 301 302 302 303 303 304 305 306 307 317 314 311 311 312 311 312 313 312 313 313 313 313 314 315 317 319 320 320 320 322 323 325 327 327 328 329 329 328 327 328
298 299 300 301 301 301 302 302 304 305 304 306 306 307 319 310 310 310 310 311 311 310 311 312 312 312 312 313 313 314 316 319 320 320 321 321 323 325 324 327 328 329 329 329 328
305 300 299 301 301 301 302 304 307 308 305 305 311 312 317 311 311 310 310 310 310 311 311 311 311 312 313 314 314 314 313 315 317 320 320 321 322 324 324 325 327 328 329 330 330
308 308 300 301 302 301 303 305 310 310 312 315 313 313 314 312 311 310 310 310 310 311 312 313 313 315 316 315 314 314 315 315 315 316 318 320 322 323 322 322 325 326 327 330 329
307 308 305 300 302 302 306 313 315 317 317 314 312 313 311 311 310 310 310 310 311 311 313 314 314 315 316 316 317 316 316 316 317 317 317 318 320 322 324 323 323 324 326 327 329
307 308 304 303 303 302 311 314 311 311 312 311 311 311 310 310 311 311 310 310 311 312 313 313 314 315 315 315 314 314 315 315 315 315 316 317 318 320 323 323 324 325 324 325 326
308 308 304 305 303 310 312 312 311 311 312 314 312 311 311 311 311 312 311 310 311 312 312 312 313 313 313 313 313 314 313 314 314 315 315 315 316 319 320 322 322 323 324 325 325
308 307 305 305 312 311 314 312 311 311 315 315 312 312 311 311 312 311 311 310 310 311 312 312 312 311 312 312 313 313 313 313 313 314 314 315 316 319 319 321 323 323 323 324 324
305 307 303 304 306 314 312 311 311 312 324 314 312 311 311 312 312 313 311 309 310 311 311 312 312 312 313 313 314 314 314 314 314 315 314 314 315 315 317 319 322 324 323 323 324
302 306 308 311 313 312 311 311 314 319 322 313 312 312 313 313 313 312 311 310 310 311 312 313 313 313 314 315 314 314 313 313 314 315 315 314 315 316 316 318 319 323 323 323 324
304 306 304 310 314 312 311 313 317 321 314 314 313 312 313 313 312 312 311 312 311 311 311 312 312 313 315 315 315 313 314 318 315 315 317 314 314 316 317 317 319 320 322 322 323
306 306 307 310 312 312 311 315 319 315 314 312 312 312 314 313 312 312 312 312 312 311 311 312 312 312 313 314 314 313 313 316 319 315 314 313 313 315 317 318 317 318 320 321 322
307 313 313 314 312 312 311 317 317 313 312 311 312 314 313 313 312 312 313 312 312 311 311 311 311 311 311 311 314 313 314 315 318 315 317 314 313 314 315 318 319 319 320 322 321
307 313 314 315 312 312 313 316 315 312 310 310 312 314 314 313 313 312 312 313 312 312 312 312 312 311 311 311 313 315 315 315 316 315 316 314 312 313 317 320 319 320 323 321 322
311 314 315 313 311 313 317 315 312 309 308 309 313 313 313 312 312 312 312 313 313 313 313 312 312 313 313 312 311 313 314 315 317 316 315 314 314 317 318 319 318 318 321 323 323
311 313 314 309 312 316 315 312 309 310 310 312 312 313 312 312 312 311 312 313 312 312 312 313 314 313 312 312 313 313 315 315 319 316 315 316 317 316 316 315 317 314 322 322 322
312 312 313 311 316 314 312 313 312 311 311 311 311 312 312 311 312 311 313 313 312 313 313 314 313 314 311 311 314 313 313 313 315 317 318 317 315 317 315 315 315 316 318 321 320
312 314 313 311 312 313 313 312 312 311 310 310 311 311 312 312 311 312 312 312 312 312 312 312 314 314 315 312 313 313 313 313 314 317 314 314 313 315 314 315 314 314 318 320 319
312 313 311 313 310 310 312 312 312 311 310 310 311 311 311 312 311 311 311 312 312 312 312 313 316 313 312 312 312 312 313 312 313 314 313 311 312 312 315 314 313 314 315 317 318
308 307 306 307 310 311 311 312 311 311 311 311 310 310 310 310 310 311 311 312 314 313 313 314 315 314 314 313 311 311 311 311 311 312 312 311 312 314 314 314 314 314 315 316 317
306 305 305 306 310 311 311 310 309 309 308 309 309 309 310 311 310 310 310 310 311 313 314 314 315 314 315 313 312 314 313 314 315 314 315 315 315 317 317 316 316 316 316 317 317